Regional Weather Roundup
Issued by NWS Little Rock, AR

Home | Current Version | Previous Version | Graphics & Text | Print | Product List | Glossary On
Versions: 1 2 3 4 5 6 7 8 9 10 11 12 13 14 15 16 17 18 19 20 21 22 23 24 25 26 27
000
ASUS44 KLZK 281505
RWRLZK

WEATHER ROUNDUP FOR ARKANSAS
NATIONAL WEATHER SERVICE LITTLE ROCK AR
1000 AM CDT SUN AUG 28 2016

NOTE: "FAIR" INDICATES FEW OR NO CLOUDS BELOW 12,000 FEET WITH NO
SIGNIFICANT WEATHER AND/OR OBSTRUCTIONS TO VISIBILITY.

ARZ001-003-010-029-281600-
NORTHWEST ARKANSAS

CITY           SKY/WX    TMP DP  RH WIND       PRES   REMARKS
FAYETTEVILLE   SUNNY     79  73  82 VRB3      30.17S
FORT SMITH     SUNNY     82  73  74 E8        30.12S HX  87
HARRISON       MOSUNNY   79  70  74 E6        30.19R
BENTONVILLE    SUNNY     81  70  69 SE6       30.18R
ROGERS         SUNNY     81  71  71 SE7       30.19R HX  85
SILOAM SPGS    SUNNY     81  66  61 SE6       30.18S
HIGHFILL       SUNNY     82  73  74 SE5       30.17R HX  87
SPRINGDALE     SUNNY     81  72  74 CALM      30.19R
$$

ARZ004-005-016-281600-
NORTH CENTRAL ARKANSAS

CITY           SKY/WX    TMP DP  RH WIND       PRES   REMARKS
BATESVILLE     SUNNY     84  73  70 CALM      30.14S HX  91
FLIPPIN        CLOUDY    75  72  88 CALM      30.15R
MTN HOME       SUNNY     81  73  76 S3        30.17R HX  86
$$

ARZ040-041-281600-
WEST CENTRAL ARKANSAS

CITY           SKY/WX    TMP DP  RH WIND       PRES   REMARKS
MENA           SUNNY     81  77  89 E3        30.14S HX  88
MOUNT IDA      CLOUDY    82  73  74 CALM      30.10S HX  87
$$

ARZ009-017-025-026-028-281600-
NORTHEAST ARKANSAS

CITY           SKY/WX    TMP DP  RH WIND       PRES   REMARKS
JONESBORO      SUNNY     84  76  76 E6        30.13R HX  93
NEWPORT        CLOUDY    83  77  82 NE6       30.13R HX  92
WALNUT RIDGE   SUNNY     82  75  78 NE9       30.13S HX  89
BLYTHEVILLE    SUNNY     85  77  77 E3        30.14R HX  95
$$

ARZ022-023-033-042-044-281600-
CENTRAL ARKANSAS

CITY           SKY/WX    TMP DP  RH WIND       PRES   REMARKS
LITTLE ROCK    CLOUDY    84  74  71 E5        30.11R HX  91
N LITTLE ROCK    N/A     84  76  77 E5        30.08S HX  92
JACKSONVILLE   MOSUNNY   83  76  79 CALM      30.11R HX  92
SEARCY         SUNNY     84  76  76 NE6       30.13S HX  93
HOT SPRINGS    CLOUDY    82  73  74 SE5       30.11S HX  87
RUSSELLVILLE   SUNNY     83  75  77 CALM      30.12R HX  90
$$

ARZ036-281600-
EAST ARKANSAS

CITY           SKY/WX    TMP DP  RH WIND       PRES   REMARKS
WEST MEMPHIS   SUNNY     85  74  69 E3        30.10S HX  92
$$

ARZ050-053-066-070-073-281600-
SOUTHWEST ARKANSAS

CITY           SKY/WX    TMP DP  RH WIND       PRES   REMARKS
ARKADELPHIA    FAIR      80  76  87 E3        30.09S HX  86
TEXARKANA      CLOUDY    78  75  90 N6        30.08S
EL DORADO      CLOUDY    80  74  81 NE3       30.07S HX  85
DE QUEEN       PTSUNNY   79  76  90 CALM      30.07F
$$

ARZ056-057-069-281600-
SOUTHEAST ARKANSAS

CITY           SKY/WX    TMP DP  RH WIND       PRES   REMARKS
PINE BLUFF     MOSUNNY   84  75  74 E5        30.09S HX  92
STUTTGART      MOSUNNY   82  72  69 NE5       30.10S HX  87
MONTICELLO     SUNNY     88  74  63 E6        30.07F HX  96

$$






USA.gov is the U.S. government's official web portal to all federal, state and local government web resources and services.